Погода в Новотроицком

Украина / Запорожская область     46°57′33″N   36°39′15″E
темп.,
°C
ветер,
м/с
пор.,
м/с
влажн.,
%
обл.,
%
осадки,
мм/ч
давл.,
гПа
погр.,
м
16 мая, вс
вс1600:00+15ссз22620 0.0 101311
03:00+14ссв44590 0.0 101244
06:00+15ссв467533 0.0 101197
09:00+23св454942 0.0 1010463
12:00+27всв56426 0.0 10091405
15:00+28в5647100 0.0 10071696
18:00+25вюв586591 0.0 1005564
21:00+19всв467492 0.1 100496
17 мая, пн
пн1700:00+17св487951 0.1 1003127
03:00+16св4784100 1.6 1003138
06:00+16в7127628 0.0 1002345
09:00+17ююв71193100 0.0 1004583
12:00+19ю578499 0.0 1006662
15:00+22ююз676930 0.0 1006853
18:00+20ююз576972 0.0 1007627
21:00+15ююз369372 0.0 1009132
18 мая, вт
вт1800:00+14зюз3593100 0.0 100887
03:00+14юв1195100 0.0 100911
06:00+15в1293100 0.0 100955
09:00+19ююв337459 1.1 1009494
12:00+20ю7863100 0.8 1009925
15:00+20ююз8106513 0.8 10091104
18:00+18ююз8107856 0.1 1008625
21:00+14ююз5997100 2.6 1008459
19 мая, ср
ср1900:00+14юз71290100 2.4 1008519
03:00+13ююз399279 2.7 1008251
06:00+12юз310924 0.0 1009381
09:00+15юз8106875 0.3 10091240
12:00+16юз10137399 0.7 10101455
15:00+15зюз8146766 0.9 10111426
18:00+17зюз7126639 0.7 10121471
21:00+12зюз49825 0.8 1013201
20 мая, чт
чт2000:00+11зюз35870 0.0 101474
03:00+10зюз3484100 0.0 101555
06:00+12з2286100 0.0 101436
09:00+17юв2260100 0.0 1014546
12:00+20вюв665298 0.0 10131096
15:00+21в784529 0.0 10111024
18:00+19в7116183 0.0 1010799
21:00+17в715772 0.0 1008452